Regional Weather Roundup
Issued by NWS Sioux Falls, SD

Home | Current Version | Previous Version | Text Only | Print | Product List | Glossary On
Versions: 1 2 3 4 5 6 7 8 9 10 11 12 13 14 15 16 17 18 19 20 21 22 23 24 25 26 27 28 29 30 31 32 33 34 35 36 37 38 39 40 41 42 43 44 45 46 47 48 49 50
000
ASUS43 KFSD 300710
RWRFSD

WEATHER ROUNDUP FOR SE SOUTH DAKOTA/SW MINNESOTA/NW IOWA
NATIONAL WEATHER SERVICE SIOUX FALLS SD
200 AM CDT THU JUL 30 2015

NOTE: "FAIR" INDICATES FEW OR NO CLOUDS BELOW 12,000 FEET WITH NO
SIGNIFICANT WEATHER AND OR OBSTRUCTIONS TO VISIBILITY.


SDZ038>040-050-052>070-300800-
SOUTHEAST SOUTH DAKOTA

CITY           SKY/WX    TMP DP  RH WIND       PRES   REMARKS
BROOKINGS      CLEAR     61  54  77 CALM      30.13S
CHAMBERLAIN    CLOUDY    64  58  80 CALM      30.14S
HURON          CLEAR     62  56  80 SW8       30.10R
MADISON        FAIR      63  57  82 SW5       30.13S
MITCHELL       CLEAR     61  56  83 CALM      30.12R
SIOUX FALLS    PTCLDY    62  58  86 CALM      30.12S
WINNER         PTSUNNY   72  51  47 S6        30.16S
YANKTON        CLEAR     68  55  64 SW8       30.12R
$$

MNZ071-072-080-081-089-090-097-098-300800-
SOUTHWEST MINNESOTA

CITY           SKY/WX    TMP DP  RH WIND       PRES   REMARKS
FAIRMONT       CLEAR     64  54  68 W9        30.09S
JACKSON        CLEAR     63  55  77 W3        30.12S
LUVERNE        CLEAR     61  55  82 CALM      30.13S
MARSHALL       CLEAR     63  52  67 SW9       30.09S
MONTEVIDEO     CLEAR     61  52  72 W5        30.07R
PIPESTONE      CLEAR     59  55  88 CALM      30.13S
REDWOOD FALLS  CLEAR     67  54  63 W8        30.06R
TRACY          CLEAR     63  57  82 SW7       30.10S
WINDOM         CLEAR     61  55  82 CALM      30.11S
WORTHINGTON    CLEAR     61  54  77 SW7       30.13R
$$

IAZ001>003-012>014-020>022-031-032-NEZ013-014-SDZ071-300800-
NORTHWEST IOWA

CITY           SKY/WX    TMP DP  RH WIND       PRES   REMARKS
CHEROKEE       CLEAR     63  61  93 S5        30.14R
DENISON        CLEAR     63  59  88 CALM      30.14S
ESTHERVILLE    CLEAR     59  56  89 SW6       30.11S
LE MARS        CLEAR     63  59  88 CALM      30.14S
ORANGE CITY    CLEAR     61  55  82 CALM      30.14S
SHELDON        CLEAR     55  55 100 CALM      30.12S
SIOUX CITY     CLEAR     68  58  70 W8        30.13S
SPENCER        CLEAR     59  55  87 CALM      30.13S
STORM LAKE     CLEAR     63  59  88 SW7       30.15S
$$

ABBREVIATIONS USED IN REMARKS
   TC - TEMPERATURE IN CELSIUS
  WCI - WIND CHILL INDEX
   HX - HEAT INDEX
  VSB - VISIBILITY




USA.gov is the U.S. government's official web portal to all federal, state and local government web resources and services.